[[{"header":{"parameterUnit":"m.s-1","parameterCategory":1,"la1":30.2991,"la2":30.254,"lo1":-89.0895,"lo2":-89.0444,"dy":0.0017,"dx":0.0017,"nx":28,"ny":28,"refTime":"2025-08-18T09:00:00:Z","depth":0,"parameterNumber":2,"parameterNumberName":"U-component_of_WINDS"},"data":[0,0,0,0,0,0,0,0,0,0,0,0,0,0,0,0,0,0,0,0,0,0,0,0,0,0,0,0,0,0,0,0,0,0,0,0,0,0,0,0,0,0,0,0,0,0,0,0,0,0,0,0,0,0,0,0,0,0,-0.3583,-0.3585,0,-0.3843,-0.3846,-0.3849,-0.3964,-0.3964,-0.3964,-0.3963,-0.422,-0.4227,-0.4234,0,0,0,0,0,0,0,0,0,0,0,0,0,-0.318,-0.3186,-0.3582,-0.3586,-0.3589,-0.3842,-0.3846,-0.385,-0.3964,-0.3964,-0.3963,-0.3963,-0.4217,-0.4226,-0.4234,0,0,0,0,0,0,0,0,0,0,0,0,0,-0.3388,-0.3189,-0.3582,-0.3677,-0.3688,-0.3842,-0.3846,-0.3851,-0.3964,-0.3964,-0.3963,-0.3963,-0.4215,-0.4225,-0.4235,-0.4311,0,0,-0.4268,-0.4273,0,0,0,0,0,0,0,0,-0.3376,-0.3403,-0.366,-0.3671,-0.3683,-0.3871,-0.3798,-0.4005,-0.3964,-0.3859,-0.3963,-0.3963,-0.4103,-0.4123,-0.4173,-0.4323,-0.4334,-0.4269,-0.4276,-0.428,-0.4283,0,0,0,0,0,0,0,-0.3362,-0.3392,-0.3685,-0.3663,-0.3678,-0.3705,-0.3734,-0.3838,-0.398,-0.3868,-0.3877,-0.3907,-0.411,-0.4162,-0.418,-0.4338,-0.4269,-0.4278,-0.4285,-0.4289,-0.4569,-0.457,0,0,0,0,0,0,-0.3333,-0.338,-0.3677,-0.3693,-0.3526,-0.3713,-0.3745,-0.3811,-0.398,-0.4005,-0.3907,-0.3911,-0.4144,-0.4167,-0.4189,-0.4293,-0.428,-0.429,-0.4296,-0.4568,-0.4569,-0.457,0,0,0,0,0,0,-0.3324,-0.3358,-0.3666,-0.3539,-0.3581,-0.372,-0.3793,-0.3816,-0.3869,-0.4009,-0.4034,-0.3935,-0.4145,-0.4174,-0.4282,-0.4303,-0.4295,-0.4305,-0.4567,-0.4568,-0.457,-0.4497,0,0,0,0,0,0,-0.3312,-0.3354,-0.3385,-0.3539,-0.3587,-0.3756,-0.3794,-0.3822,-0.3888,-0.3896,-0.4042,-0.4065,-0.4146,-0.4265,-0.4293,-0.4318,-0.4313,-0.4566,-0.4568,-0.4569,-0.4499,-0.4496,-0.4494,0,0,0,0,0,-0.3297,-0.3351,-0.3386,-0.3421,-0.3629,-0.3757,-0.3784,-0.3879,-0.3889,-0.3922,-0.4013,-0.4061,-0.4296,-0.4275,-0.4307,-0.4335,-0.4565,-0.4567,-0.4569,-0.4499,-0.4497,-0.4494,0,0,0,0,0,0,-0.319,-0.3372,-0.3413,-0.3519,-0.3623,-0.3776,-0.3819,-0.3872,-0.3972,-0.3975,-0.4086,-0.4118,-0.4217,-0.4287,-0.426,-0.442,-0.4435,-0.4443,-0.4371,-0.437,-0.4367,-0.4348,-0.4322,0,0,0,0,0,-0.318,-0.3271,-0.3424,-0.3503,-0.3553,-0.3677,-0.3736,-0.3802,-0.3912,-0.3955,-0.4053,-0.4156,-0.4254,-0.4315,-0.4413,-0.451,-0.4544,-0.4545,-0.4543,-0.4541,-0.4547,-0.4608,-0.4611,-0.4578,-0.4578,-0.4578,0,0,-0.3157,-0.3268,-0.3318,-0.3484,-0.3572,-0.3664,-0.3713,-0.3806,-0.3875,-0.3968,-0.4078,-0.4154,-0.4276,-0.438,-0.4431,-0.4442,-0.4564,-0.4544,-0.4541,-0.4548,-0.461,-0.4613,-0.4616,-0.458,-0.4579,-0.4579,0,0,-0.3164,-0.3256,-0.3335,-0.3424,-0.3558,-0.3642,-0.366,-0.3808,-0.3864,-0.3977,-0.4051,-0.4133,-0.4298,-0.4384,-0.4449,-0.4496,-0.4545,-0.4524,-0.4513,-0.4571,-0.4574,-0.4577,-0.4596,-0.4601,-0.453,-0.453,-0.4529,0,-0.3118,-0.3262,-0.3367,-0.3459,-0.3531,-0.3625,-0.3706,-0.3785,-0.3943,-0.399,-0.4001,-0.4215,-0.4303,-0.4431,-0.4443,-0.4492,-0.4517,-0.4507,-0.4565,-0.4569,-0.4573,-0.4593,-0.46,-0.4526,-0.4527,-0.4527,-0.4527,0,-0.3201,-0.3299,-0.3346,-0.3502,-0.3579,-0.3664,-0.3782,-0.3847,-0.3907,-0.3989,-0.4105,-0.4216,-0.434,-0.4375,-0.4431,-0.4512,-0.4516,-0.4544,-0.4561,-0.4572,-0.4592,-0.46,-0.4522,-0.4523,-0.4524,-0.4525,0,0,-0.3143,-0.3362,-0.3377,-0.3452,-0.361,-0.3687,-0.3778,-0.3904,-0.3959,-0.4066,-0.4145,-0.4286,-0.4317,-0.439,-0.4458,-0.4509,-0.4544,-0.4533,-0.4537,-0.4533,-0.4644,-0.4622,-0.4629,-0.4578,-0.458,-0.4581,-0.4634,0,-0.3173,-0.3343,-0.3443,-0.3572,-0.3666,-0.376,-0.3839,-0.3945,-0.4025,-0.4115,-0.4203,-0.4303,-0.4333,-0.438,-0.4434,-0.4528,-0.4567,-0.4525,-0.4652,-0.4656,-0.462,-0.4639,-0.4615,-0.466,-0.4643,-0.4644,-0.4645,0,-0.3229,-0.334,-0.3479,-0.3634,-0.3677,-0.3746,-0.3873,-0.3958,-0.4081,-0.4136,-0.4222,-0.4292,-0.4392,-0.4402,-0.4541,-0.4511,-0.4569,-0.4623,-0.4627,-0.4643,-0.4651,-0.4656,-0.4676,-0.4683,-0.4658,-0.4657,-0.4656,0,-0.3176,-0.336,-0.3469,-0.3529,-0.371,-0.3758,-0.3835,-0.3958,-0.403,-0.4139,-0.4187,-0.4305,-0.437,-0.4459,-0.456,-0.4557,-0.469,-0.4707,-0.4739,-0.4737,-0.4762,-0.4759,-0.4792,-0.4797,-0.4797,-0.4797,-0.4797,0,-0.3199,-0.3281,-0.3449,-0.3515,-0.3611,-0.3727,-0.3818,-0.3902,-0.4012,-0.4096,-0.4183,-0.426,-0.4388,-0.448,-0.4559,-0.4665,-0.4692,-0.474,-0.476,-0.4733,-0.4727,-0.4772,-0.4772,-0.4799,-0.4799,-0.4798,-0.4798,0,-0.3155,-0.3271,-0.3396,-0.3561,-0.3604,-0.3667,-0.3808,-0.3876,-0.3964,-0.407,-0.4101,-0.4238,-0.4352,-0.4462,-0.4613,-0.4667,-0.4773,-0.4798,-0.4733,-0.4744,-0.477,-0.4767,-0.4834,-0.485,-0.4843,-0.4842,-0.4842,0,-0.3162,-0.3229,-0.3403,-0.3468,-0.3545,-0.3648,-0.3724,-0.3841,-0.3916,-0.4065,-0.4115,-0.4238,-0.4342,-0.452,-0.4631,-0.4749,-0.4779,-0.4795,-0.4796,-0.4769,-0.4782,-0.4777,-0.4786,-0.4791,-0.4791,-0.4791,-0.479,0,-0.3164,-0.322,-0.3327,-0.3456,-0.3545,-0.3651,-0.3759,-0.3807,-0.3945,-0.4025,-0.4147,-0.4228,-0.4387,-0.4508,-0.464,-0.4718,-0.4777,-0.479,-0.4804,-0.4777,-0.4737,-0.4762,-0.4728,-0.4787,-0.4787,-0.4787,-0.4788,-0.4788,-0.3147,-0.3213,-0.3348,-0.3466,-0.3561,-0.3663,-0.3737,-0.3837,-0.3942,-0.4084,-0.4146,-0.4269,-0.4395,-0.4579,-0.4657,-0.4755,-0.4768,-0.4787,-0.4793,-0.4796,-0.4792,-0.4722,-0.4779,-0.4779,-0.4779,-0.4779,-0.4779,0,-0.3155,-0.3248,-0.3356,-0.3509,-0.3603,-0.3656,-0.3781,-0.3855,-0.3964,-0.4078,-0.4181,-0.4323,-0.4442,-0.4566,-0.4692,-0.4747,-0.4777,-0.4776,-0.4773,-0.4791,-0.4771,-0.4748,-0.4749,-0.4749,-0.4749,-0.4749,-0.4749,-0.4749,-0.317,-0.3286,-0.3359,-0.3524,-0.3616,-0.3741,-0.3808,-0.3903,-0.3996,-0.4151,-0.4253,-0.4335,-0.4454,-0.4591,-0.4703,-0.4737,-0.4779,-0.477,-0.4811,-0.479,-0.4791,-0.4793,-0.4772,-0.4778,-0.4778,-0.4824,-0.4824,-0.4824]},{"header":{"parameterUnit":"m.s-1","parameterCategory":1,"la1":30.2991,"la2":30.254,"lo1":-89.0895,"lo2":-89.0444,"dy":0.0017,"dx":0.0017,"nx":28,"ny":28,"refTime":"2025-08-18T09:00:00:Z","depth":0,"parameterNumber":3,"parameterNumberName":"V-component_of_WINDS"},"data":[0,0,0,0,0,0,0,0,0,0,0,0,0,0,0,0,0,0,0,0,0,0,0,0,0,0,0,0,0,0,0,0,0,0,0,0,0,0,0,0,0,0,0,0,0,0,0,0,0,0,0,0,0,0,0,0,0,0,2.8174,2.8176,0,2.8387,2.8389,2.8392,2.8481,2.8481,2.848,2.848,2.8692,2.8698,2.8704,0,0,0,0,0,0,0,0,0,0,0,0,0,2.7836,2.7842,2.8173,2.8176,2.8179,2.8386,2.8389,2.8392,2.8481,2.8481,2.848,2.848,2.869,2.8697,2.8704,0,0,0,0,0,0,0,0,0,0,0,0,0,2.8009,2.7843,2.8173,2.8248,2.8257,2.8386,2.8389,2.8393,2.8481,2.8481,2.848,2.8479,2.8688,2.8697,2.8705,2.8773,0,0,2.8733,2.8737,0,0,0,0,0,0,0,0,2.7999,2.8021,2.8235,2.8243,2.8254,2.8407,2.8348,2.852,2.8481,2.8396,2.848,2.8479,2.8597,2.8614,2.8655,2.8783,2.8792,2.8734,2.8739,2.8743,2.8746,0,0,0,0,0,0,0,2.7987,2.8012,2.8258,2.8237,2.8249,2.8269,2.8293,2.8381,2.8497,2.8403,2.841,2.8435,2.8602,2.8646,2.866,2.8795,2.8734,2.8742,2.8747,2.8751,2.8988,2.8988,0,0,0,0,0,0,2.7963,2.8002,2.8251,2.8264,2.8122,2.8275,2.8302,2.8358,2.8496,2.8517,2.8435,2.8438,2.8631,2.865,2.8668,2.8756,2.8743,2.8752,2.8757,2.8987,2.8988,2.8989,0,0,0,0,0,0,2.7956,2.7985,2.8242,2.8135,2.8169,2.8282,2.8344,2.8363,2.8407,2.8521,2.8541,2.8459,2.8631,2.8656,2.8746,2.8765,2.8756,2.8764,2.8986,2.8987,2.8988,2.8932,0,0,0,0,0,0,2.7946,2.7982,2.801,2.8135,2.8175,2.8319,2.8345,2.8367,2.8423,2.8429,2.8548,2.8567,2.8632,2.8732,2.8755,2.8777,2.8771,2.8985,2.8986,2.8988,2.8933,2.8931,2.893,0,0,0,0,0,2.7933,2.7985,2.8011,2.8041,2.8214,2.832,2.8342,2.8418,2.8424,2.8452,2.8525,2.8564,2.8759,2.8741,2.8768,2.8792,2.8984,2.8986,2.8988,2.8934,2.8932,2.893,0,0,0,0,0,0,2.7858,2.8003,2.8034,2.8128,2.8211,2.8335,2.8374,2.8414,2.8496,2.8498,2.8586,2.8612,2.8695,2.8753,2.873,2.8864,2.8874,2.8881,2.8824,2.8823,2.8821,2.8806,2.8778,0,0,0,0,0,2.7853,2.7929,2.8051,2.8122,2.8162,2.826,2.8309,2.836,2.8449,2.8485,2.8564,2.8647,2.8727,2.8778,2.8858,2.8941,2.8967,2.8971,2.8969,2.8967,2.8973,2.9019,2.9022,2.8995,2.8995,2.8995,0,0,2.7842,2.793,2.7973,2.8109,2.818,2.8254,2.8289,2.8368,2.8424,2.8496,2.8587,2.8648,2.8746,2.8833,2.8875,2.8883,2.8986,2.897,2.8968,2.8974,2.9022,2.9024,2.9026,2.8997,2.8996,2.8996,0,0,2.7861,2.7936,2.8003,2.8073,2.818,2.8245,2.826,2.8378,2.8422,2.8515,2.857,2.8636,2.8773,2.884,2.8892,2.8934,2.8971,2.8957,2.895,2.8994,2.8996,2.8998,2.9012,2.9017,2.8962,2.8961,2.8961,0,2.7833,2.7951,2.8032,2.8108,2.8164,2.8234,2.8302,2.8365,2.8491,2.8527,2.8535,2.8707,2.8778,2.8881,2.8891,2.8931,2.895,2.8944,2.899,2.8993,2.8996,2.901,2.9015,2.8959,2.8959,2.896,2.896,0,2.7912,2.7992,2.8033,2.8155,2.8216,2.8287,2.8376,2.8428,2.8472,2.8535,2.8627,2.8715,2.8813,2.8841,2.8885,2.895,2.8952,2.8973,2.8985,2.8995,2.901,2.9016,2.8955,2.8956,2.8957,2.8958,0,0,2.7891,2.8056,2.8069,2.8125,2.8247,2.8309,2.8381,2.8479,2.8521,2.8605,2.8667,2.8779,2.88,2.8859,2.891,2.8949,2.8975,2.8966,2.897,2.8964,2.905,2.9033,2.9039,2.9,2.9002,2.9003,2.9042,0,2.7926,2.8062,2.8135,2.8239,2.8313,2.8379,2.8442,2.8521,2.8581,2.8651,2.8716,2.8794,2.8816,2.8852,2.8893,2.8963,2.8993,2.8961,2.9057,2.9059,2.9031,2.9047,2.903,2.9063,2.9048,2.9049,2.905,0,2.7986,2.8071,2.8182,2.8294,2.8328,2.8383,2.8478,2.8544,2.8634,2.8675,2.874,2.8791,2.8867,2.8872,2.8977,2.8953,2.8996,2.9036,2.9039,2.9051,2.9056,2.9059,2.9075,2.908,2.906,2.9059,2.9059,0,2.7959,2.81,2.8185,2.823,2.8363,2.84,2.8457,2.8547,2.8601,2.8682,2.8717,2.8805,2.8854,2.892,2.8992,2.8989,2.9089,2.9101,2.9123,2.9122,2.9142,2.914,2.9165,2.9169,2.9169,2.9169,2.9169,0,2.7991,2.8057,2.8175,2.8227,2.8301,2.8383,2.8453,2.8515,2.8594,2.8657,2.8719,2.8776,2.8868,2.8936,2.8993,2.907,2.9091,2.9125,2.9139,2.912,2.9116,2.915,2.9149,2.917,2.917,2.917,2.9169,0,2.7975,2.8057,2.8153,2.8271,2.8302,2.8351,2.845,2.8502,2.8564,2.8643,2.8666,2.8763,2.8846,2.8925,2.9035,2.9073,2.9151,2.9169,2.9121,2.9129,2.9147,2.9144,2.9196,2.9206,2.9202,2.9202,2.9202,0,2.799,2.8042,2.8165,2.8213,2.8269,2.8344,2.84,2.8481,2.8535,2.8641,2.8679,2.8767,2.8843,2.8971,2.905,2.9135,2.9156,2.9168,2.9169,2.9147,2.9156,2.9152,2.9157,2.9166,2.9166,2.9166,2.9165,0,2.8008,2.8046,2.8124,2.8216,2.828,2.8356,2.8433,2.8468,2.8564,2.8621,2.8708,2.8766,2.8879,2.8965,2.9058,2.9113,2.9155,2.9164,2.9174,2.9155,2.9125,2.9141,2.9117,2.9163,2.9163,2.9163,2.9164,2.9164,2.8009,2.8057,2.8151,2.8236,2.8303,2.8373,2.8427,2.8496,2.8571,2.8671,2.8713,2.88,2.8887,2.9017,2.9072,2.9139,2.9149,2.9163,2.9167,2.9169,2.9165,2.9113,2.9156,2.9157,2.9157,2.9157,2.9157,0,2.803,2.8093,2.817,2.8277,2.8342,2.8377,2.8464,2.8516,2.8593,2.8671,2.8744,2.8842,2.8925,2.901,2.9097,2.9135,2.9156,2.9155,2.9153,2.9165,2.9152,2.9135,2.9136,2.9136,2.9136,2.9136,2.9136,2.9136,2.8049,2.8133,2.8181,2.8298,2.8361,2.8448,2.8495,2.8559,2.8622,2.873,2.88,2.8855,2.8936,2.9029,2.9106,2.9128,2.9157,2.9151,2.9179,2.9165,2.9166,2.9167,2.9151,2.9157,2.9157,2.9187,2.9187,2.9187]}]]